Location: Beadle
(51.4667°N, 109.0000°W)
Time: 04:49:15
(UTC+00:00)

Altair - Pass Details

Date: 06 June 2022
Orbit: 1501 x 1682 km, 47.2° (Epoch: 30 June)

Event Time Altitude Azimuth Distance (km) Brightness Sun altitude
Rises 02:43:04 0° 286° (WNW) 4,894 12.1 4.9°
Reaches altitude 10° 02:46:27 10° 279° (W) 3,921 11.2 4.4°
Maximum altitude 02:55:27 39° 216° (SW) 2,348 8.6 3.2°
Drops below altitude 10° 03:04:30 10° 153° (SSE) 3,931 9.1 2.1°
Sets 03:07:55 0° 146° (SE) 4,907 9.5 1.6°
